Location: Innerarity Island Observatory
(30.3139°N, 87.4867°W)
Time: 17:48:21
(UTC-05:00)

FO-29 - Visible Passes

Search period start: 25 July 2017 00:00
Search period end: 04 August 2017 00:00
Orbit: 801 x 1321 km, 98.6° (Epoch: 25 July)

Date Brightness Start Highest point End Pass type
(mag) Time Alt. Az. Time Alt. Az. Time Alt. Az.
25 Jul 11.1 21:07:03 10° NE 21:10:51 16° E 21:10:51 16° E visible
25 Jul 9.9 22:49:51 10° N 22:56:36 60° WNW 22:57:20 56° WSW visible
26 Jul 9.8 21:55:07 10° NNE 22:01:28 47° E 22:01:28 47° E visible
26 Jul 11.5 23:41:03 10° NNW 23:46:04 22° WNW 23:47:56 20° W visible
27 Jul 11.2 21:02:38 10° ENE 21:05:36 14° E 21:05:36 14° E visible
27 Jul 9.8 22:44:58 10° N 22:51:39 64° WNW 22:52:04 62° W visible
28 Jul 9.9 21:50:20 10° NNE 21:56:12 42° E 21:56:12 42° E visible
28 Jul 11.3 23:36:04 10° NNW 23:41:09 24° WNW 23:42:40 22° W visible
29 Jul 11.3 20:58:19 10° ENE 21:00:19 12° E 21:00:19 12° E visible
29 Jul 9.6 22:40:05 10° N 22:46:41 69° WNW 22:46:47 69° W visible
30 Jul 10.1 21:45:34 10° NNE 21:50:55 38° E 21:50:55 38° E visible
30 Jul 11.2 23:31:05 10° NNW 23:36:14 25° WNW 23:37:23 24° W visible
31 Jul 11.4 20:54:22 10° ENE 20:55:01 11° E 20:55:01 11° E visible
31 Jul 9.6 22:35:12 10° N 22:41:30 74° NW 22:41:30 74° NW visible
01 Aug 10.2 21:40:47 10° NNE 21:45:36 33° ENE 21:45:36 33° ENE visible
01 Aug 11.1 23:26:06 10° NNW 23:31:18 27° WNW 23:32:04 26° WNW visible
02 Aug 9.5 22:30:19 10° N 22:36:11 74° NNW 22:36:11 74° NNW visible
03 Aug 10.4 21:36:01 10° NE 21:40:18 29° ENE 21:40:18 29° ENE visible
03 Aug 11.0 23:21:07 10° N 23:26:21 28° WNW 23:26:46 28° WNW visible
